1484560800.54,36412,5.13,72592.3,-6.79,-9.67,-9.79,0,*55
1484560801.79,36413,5.13,72594.3,-6.79,-9.61,-9.79,0,*52
1484560803.05,36414,5.13,72588.5,-6.79,-9.41,-9.67,0,*58
1484560804.25,36415,5.13,72592.3,-6.77,-9.71,-9.97,0,*5B
1484560805.45,36416,5.13,72590.0,-6.77,-9.71,-9.97,0,*58
1484560806.7,36417,5.13,72588.8,-6.75,-9.57,-9.75,0,*53
1484560807.98,36418,5.13,72590.5,-6.75,-9.45,-9.61,0,*5A
1484560809.25,36419,5.13,72592.3,-6.75,-9.37,-9.57,0,*5B
1484560810.48,36420,5.13,72590.0,-6.69,-9.27,-9.45,0,*5E
1484560811.71,36421,5.13,72588.8,-6.73,-9.67,-9.83,0,*5A
1484560812.93,36422,5.13,72592.5,-6.69,-9.57,-9.93,0,*50
1484560814.15,36423,5.13,72590.3,-6.69,-9.83,-9.97,0,*5C
1484560815.37,36424,5.06,72590.0,-6.69,-9.45,-9.71,0,*59
1484560816.62,36425,5.13,72590.3,-6.69,-9.57,-9.83,0,*56
1484560817.85,36426,5.13,72588.3,-6.69,-10.05,-10.41,0,*5C
1484560819.09,36427,5.13,72588.8,-6.69,-9.57,-9.83,0,*54
1484560820.35,36428,5.13,72588.8,-6.67,-9.41,-9.67,0,*58
1484560821.57,36429,5.13,72588.0,-6.65,-9.53,-9.75,0,*5B
1484560822.82,36430,5.13,72588.5,-6.67,-9.61,-9.89,0,*53
1484560824.04,36431,5.13,72592.3,-6.65,-9.41,-9.75,0,*51
1484560825.28,36432,5.13,72594.3,-6.63,-9.57,-9.89,0,*50
1484560826.51,36433,5.06,72590.8,-6.65,-9.53,-9.79,0,*5C
1484560827.73,36434,5.13,72588.0,-6.65,-9.49,-9.75,0,*5C
1484560828.96,36435,5.13,72590.5,-6.65,-9.27,-9.53,0,*51
1484560830.21,36436,5.13,72592.5,-6.63,-9.23,-9.45,0,*57
1484560831.46,36437,5.13,72590.0,-6.63,-9.31,-9.57,0,*56
1484560832.71,36438,5.13,72588.8,-6.63,-9.49,-9.71,0,*52
1484560833.93,36439,5.13,72590.5,-6.61,-9.23,-9.45,0,*5A
1484560835.16,36440,5.06,72590.0,-6.61,-9.61,-10.15,0,*6F
1484560836.36,36441,5.13,72588.5,-6.61,-10.57,-10.85,0,*5A
1484560837.57,36442,5.06,72586.8,-6.61,-10.01,-10.27,0,*52
1484560838.78,36443,5.13,72590.8,-6.61,-9.57,-9.89,0,*54
1484560840.01,36444,5.13,72590.3,-6.61,-9.37,-9.71,0,*52
1484560841.24,36445,5.13,72588.3,-6.59,-9.19,-9.45,0,*53
1484560842.47,36446,5.13,72592.0,-6.59,-9.19,-9.53,0,*57
1484560843.72,36447,5.06,72590.3,-6.57,-9.27,-9.57,0,*51
1484560844.96,36448,5.13,72594.8,-6.59,-9.41,-9.71,0,*54
1484560846.21,36449,5.13,72590.8,-6.57,-9.19,-9.45,0,*51
1484560847.47,36450,5.13,72590.3,-6.57,-9.11,-9.31,0,*52
1484560848.72,36451,5.13,72592.0,-6.53,-9.05,-9.37,0,*54
1484560849.92,36452,5.13,72594.3,-6.55,-9.05,-9.23,0,*54
1484560851.15,36453,5.13,72588.0,-6.53,-9.05,-9.27,0,*57
1484560852.43,36454,5.13,72590.5,-6.53,-9.11,-9.37,0,*54
1484560853.63,36455,5.13,72590.8,-6.55,-9.05,-9.27,0,*57
1484560854.91,36456,5.13,72592.5,-6.53,-9.11,-9.41,0,*57
1484560856.11,36457,5.13,72592.8,-6.51,-9.01,-9.23,0,*51
1484560857.34,36458,5.13,72590.3,-6.51,-9.19,-9.49,0,*5B
1484560858.54,36459,5.13,72588.5,-6.47,-9.79,-10.09,0,*67
1484560859.78,36460,5.13,72590.8,-6.47,-10.27,-10.67,0,*56
1484560861.04,36461,5.13,72590.3,-6.53,-11.41,-11.73,0,*57
1484560862.33,36462,5.13,72588.8,-6.53,-11.85,-12.11,0,*5B
1484560863.57,36463,5.13,72590.5,-6.55,-11.01,-11.29,0,*58
1484560864.78,36464,5.13,72594.8,-6.55,-10.31,-10.57,0,*55
1484560866.01,36465,5.13,72592.8,-6.53,-10.01,-10.23,0,*52
1484560867.22,36466,5.13,72590.5,-6.55,-9.79,-10.09,0,*68
1484560868.46,36467,5.06,72588.5,-6.53,-9.61,-9.79,0,*59
1484560869.7,36468,5.06,72590.8,-6.53,-9.53,-9.75,0,*5B
1484560870.96,36469,5.13,72592.0,-6.53,-9.41,-9.67,0,*5A
1484560872.18,36470,5.13,72592.8,-6.51,-9.23,-9.57,0,*57
1484560873.4,36471,5.13,72590.0,-6.51,-9.19,-9.49,0,*50
1484560874.66,36472,5.13,72592.5,-6.47,-9.15,-9.41,0,*50
1484560875.91,36473,5.13,72590.8,-6.47,-9.15,-9.41,0,*51
1484560877.17,36474,5.13,72592.3,-6.47,-9.15,-9.41,0,*56
1484560878.4,36475,5.13,72594.3,-6.47,-9.05,-9.41,0,*56
1484560879.62,36476,5.13,72592.0,-6.45,-9.01,-9.31,0,*54
1484560880.84,36477,5.13,72592.5,-6.45,-9.01,-9.31,0,*55
1484560882.06,36478,5.13,72592.0,-6.45,-9.05,-9.31,0,*5E
1484560883.26,36479,5.13,72590.5,-6.43,-9.01,-9.19,0,*57
1484560884.48,36480,5.13,72594.0,-6.45,-8.97,-9.19,0,*59
1484560885.67,36481,5.13,72588.3,-6.43,-8.97,-9.19,0,*5E
1484560886.87,36482,5.13,72590.5,-6.43,-8.97,-9.19,0,*5D
1484560888.06,36483,5.13,72590.3,-6.43,-8.97,-9.19,0,*5C
1484560889.31,36484,5.13,72592.8,-6.41,-8.93,-9.11,0,*55
1484560890.54,36485,5.13,72592.5,-6.39,-8.93,-9.11,0,*5B
1484560891.79,36486,5.13,72590.3,-6.41,-8.93,-9.11,0,*57
1484560893.02,36487,5.13,72590.3,-6.39,-8.85,-9.11,0,*5E
1484560894.25,36488,5.06,72588.3,-6.39,-8.97,-9.37,0,*56
1484560895.46,36489,5.13,72594.3,-6.39,-9.01,-9.27,0,*58
1484560896.69,36490,5.06,72588.8,-6.39,-9.01,-9.37,0,*51
1484560897.88,36491,5.13,72592.3,-6.39,-8.97,-9.23,0,*5B
1484560899.1,36492,5.13,72592.3,-6.37,-8.97,-9.19,0,*5F
1484560900.33,36493,5.13,72592.3,-6.35,-8.85,-9.15,0,*53
1484560901.58,36494,5.13,72592.8,-6.37,-8.89,-9.11,0,*5E
1484560902.78,36495,5.13,72594.5,-6.35,-8.85,-9.01,0,*50
1484560903.99,36496,5.13,72594.8,-6.35,-8.85,-9.01,0,*53
1484560905.2,36497,5.06,72590.8,-6.35,-8.85,-9.01,0,*52
1484560906.42,36498,5.13,72594.5,-6.35,-9.15,-9.31,0,*56
1484560907.68,36499,5.06,72588.8,-6.33,-8.93,-9.15,0,*58
1484560908.92,36500,5.06,72590.5,-6.31,-8.81,-9.11,0,*5C
1484560910.15,36501,5.13,72594.0,-6.33,-9.01,-9.27,0,*53
1484560911.39,36502,5.13,72592.3,-6.31,-8.81,-9.15,0,*5A
1484560912.61,36503,5.06,72590.3,-6.31,-8.81,-9.01,0,*5E
1484560913.83,36504,5.13,72592.5,-6.33,-8.85,-9.05,0,*5B
1484560915.08,36505,5.06,72590.3,-6.33,-8.85,-9.15,0,*5B
1484560916.32,36506,5.13,72592.0,-6.31,-8.81,-9.15,0,*5E
1484560917.56,36507,5.13,72594.5,-6.29,-8.81,-8.97,0,*5D
1484560918.81,36508,5.13,72592.0,-6.29,-8.81,-9.01,0,*5C
1484560920.03,36509,5.13,72592.0,-6.29,-8.85,-9.01,0,*59
1484560921.28,36510,5.06,72590.8,-6.29,-8.81,-9.01,0,*55
1484560922.48,36511,5.13,72592.5,-6.25,-8.75,-8.97,0,*5D
1484560923.7,36512,5.13,72592.0,-6.25,-8.81,-9.05,0,*5F
1484560924.95,36513,5.13,72592.5,-6.23,-8.75,-9.11,0,*56
1484560926.18,36514,5.13,72590.3,-6.23,-8.75,-9.05,0,*54
1484560927.4,36515,5.13,72592.8,-6.23,-8.75,-9.05,0,*55
1484560928.65,36516,5.13,72590.5,-6.23,-8.81,-9.05,0,*5D
1484560929.9,36517,5.13,72594.0,-6.23,-8.81,-9.05,0,*5C
1484560931.1,36518,5.13,72594.5,-6.21,-8.71,-9.05,0,*5E
1484560932.3,36519,5.13,72588.8,-6.21,-8.75,-9.01,0,*5F
1484560933.51,36520,5.13,72594.5,-6.21,-8.71,-9.01,0,*51
1484560934.71,36521,5.13,72592.0,-6.21,-8.93,-9.27,0,*58
1484560935.94,36522,5.13,72592.5,-6.21,-9.05,-9.41,0,*55
1484560937.14,36523,5.06,72590.5,-6.21,-9.01,-9.31,0,*57
1484560938.35,36524,5.13,72592.0,-6.21,-8.93,-9.27,0,*5D
1484560939.6,36525,5.13,72592.5,-6.19,-8.81,-9.05,0,*54
1484560940.8,36526,5.13,72592.5,-6.17,-8.67,-9.01,0,*55
1484560942.0,36527,5.13,72590.5,-6.17,-8.67,-9.01,0,*54
1484560943.23,36528,5.13,72590.8,-6.19,-8.71,-9.01,0,*52
1484560944.43,36529,5.06,72590.3,-6.17,-8.67,-9.01,0,*5A
1484560945.63,36530,5.13,72594.5,-6.17,-8.67,-8.97,0,*5C
1484560946.83,36531,5.13,72594.8,-6.17,-8.67,-8.97,0,*5D
1484560948.03,36532,5.13,72590.0,-6.17,-8.67,-8.89,0,*51
1484560949.23,36533,5.06,72588.0,-6.13,-8.67,-8.93,0,*5F
1484560950.43,36534,5.13,72594.5,-6.13,-8.67,-8.85,0,*5F
1484560951.63,36535,5.06,72588.3,-6.13,-8.63,-8.85,0,*5A
1484560952.84,36536,5.13,72592.0,-6.13,-8.63,-8.93,0,*5E
1484560954.04,36537,5.13,72594.3,-6.13,-8.67,-8.85,0,*5C
1484560955.24,36538,5.13,72592.8,-6.13,-8.63,-8.93,0,*50
1484560956.44,36539,5.13,72592.8,-6.13,-8.67,-8.85,0,*52
1484560957.65,36540,5.06,72592.0,-6.13,-8.63,-8.85,0,*58
1484560958.88,36541,5.13,72594.8,-6.11,-8.63,-8.85,0,*5B
1484560960.1,36542,5.13,72596.8,-6.11,-8.67,-8.97,0,*5F
1484560961.33,36543,5.13,72592.0,-6.11,-8.63,-8.97,0,*5A
1484560962.54,36544,5.13,72594.5,-6.09,-8.59,-8.81,0,*5A
1484560963.75,36545,5.13,72592.8,-6.09,-8.63,-8.89,0,*5A
1484560964.95,36546,5.13,72594.5,-6.09,-8.63,-8.89,0,*59
1484560966.15,36547,5.13,72592.5,-6.09,-8.67,-8.93,0,*57
1484560967.35,36548,5.13,72592.8,-6.09,-8.63,-8.93,0,*5C
1484560968.57,36549,5.13,72592.8,-6.07,-8.67,-9.01,0,*5D
1484560969.85,36550,5.13,72592.8,-6.07,-9.15,-9.57,0,*52
1484560971.11,36551,5.13,72594.5,-6.07,-9.05,-9.41,0,*55
1484560972.35,36552,5.13,72598.8,-6.07,-8.81,-9.05,0,*5B
1484560973.6,36553,5.13,72596.0,-6.07,-8.81,-9.05,0,*5A
1484560974.83,36554,5.06,72590.8,-6.07,-8.67,-9.01,0,*51
1484560976.05,36555,5.13,72596.0,-6.07,-8.59,-8.93,0,*57
1484560977.25,36556,5.13,72594.5,-6.05,-8.59,-8.89,0,*5D
1484560978.45,36557,5.13,72596.3,-6.05,-8.55,-8.89,0,*50
1484560979.65,36558,5.13,72594.8,-6.05,-8.55,-8.85,0,*53
1484560980.85,36559,5.13,72594.3,-6.05,-8.55,-8.75,0,*5D
1484560982.04,36560,5.13,72594.3,-6.01,-8.41,-8.59,0,*58
1484560983.23,36561,5.13,72596.0,-6.01,-8.29,-8.55,0,*5B
1484560984.41,36562,5.13,72592.5,-6.01,-8.29,-8.59,0,*54
1484560985.62,36563,5.06,72592.5,-5.99,-8.29,-8.59,0,*57
1484560986.83,36564,5.13,72594.8,-5.99,-8.29,-8.59,0,*50
1484560988.02,36565,5.13,72594.0,-5.97,-8.25,-8.55,0,*5F
1484560989.24,36566,5.13,72596.0,-5.97,-8.21,-8.51,0,*5C
1484560990.43,36567,5.13,72594.8,-5.97,-8.21,-8.45,0,*58
1484560991.65,36568,5.13,72592.5,-5.97,-8.25,-8.51,0,*56
1484560992.84,36569,5.13,72594.3,-5.97,-8.25,-8.45,0,*52
1484560994.08,36570,5.13,72598.3,-5.95,-8.07,-8.37,0,*5D
1484560995.31,36571,5.13,72594.5,-5.95,-7.99,-8.37,0,*54
1484560996.54,36572,5.13,72594.3,-5.95,-8.25,-8.51,0,*5F
1484560997.73,36573,5.06,72594.0,-5.95,-8.33,-8.55,0,*5D
1484560998.94,36574,5.13,72592.8,-5.93,-8.25,-8.55,0,*5B
1484561000.19,36575,5.06,72592.8,-5.93,-8.21,-8.51,0,*5A
1484561001.42,36576,5.06,72594.5,-5.93,-8.21,-8.45,0,*5C
1484561002.64,36577,5.06,72594.5,-5.91,-8.03,-8.41,0,*5B
1484561003.85,36578,5.06,72592.5,-5.91,-8.03,-8.41,0,*54
1484561005.05,36579,5.13,72594.3,-5.91,-8.21,-8.45,0,*51
1484561006.28,36580,5.13,72596.5,-5.89,-8.17,-8.37,0,*5E
1484561007.53,36581,5.13,72592.8,-5.89,-8.03,-8.37,0,*5A
1484561008.76,36582,5.13,72594.3,-5.87,-8.11,-8.37,0,*54
1484561009.99,36583,5.06,72592.8,-5.87,-7.99,-8.37,0,*5A
1484561011.21,36584,5.06,72594.3,-5.87,-8.03,-8.37,0,*51
1484561012.44,36585,5.13,72596.5,-5.87,-7.99,-8.37,0,*5C
1484561013.66,36586,5.06,72592.0,-5.87,-8.03,-8.37,0,*53
1484561014.9,36587,5.13,72596.3,-5.85,-7.95,-8.33,0,*54
1484561016.13,36588,5.13,72596.3,-5.85,-7.99,-8.33,0,*57
1484561017.35,36589,5.13,72598.3,-5.83,-7.99,-8.33,0,*50
1484561018.59,36590,5.13,72598.5,-5.85,-7.95,-8.33,0,*52
1484561019.8,36591,5.13,72598.5,-5.83,-7.99,-8.33,0,*59
1484561021.02,36592,5.06,72592.5,-5.79,-7.95,-8.29,0,*58
1484561022.24,36593,5.13,72596.8,-5.77,-7.83,-8.29,0,*50
1484561023.46,36594,5.13,72598.8,-5.79,-7.91,-8.29,0,*5A
1484561024.66,36595,5.13,72594.0,-5.79,-7.83,-8.21,0,*50
1484561025.88,36596,5.13,72596.3,-5.79,-7.91,-8.21,0,*50
1484561027.1,36597,5.13,72594.3,-5.77,-7.83,-8.21,0,*5C
1484561028.35,36598,5.06,72592.5,-5.77,-7.77,-8.21,0,*58
1484561029.6,36599,5.13,72596.0,-5.77,-7.77,-8.21,0,*59
1484561030.87,36600,5.13,72594.8,-5.73,-7.77,-8.11,0,*5D
1484561032.14,36601,5.13,72596.5,-5.73,-7.73,-8.11,0,*58
1484561033.42,36602,5.13,72596.3,-5.73,-7.77,-8.11,0,*5F
1484561034.66,36603,5.13,72596.8,-5.73,-7.65,-8.17,0,*5B
1484561035.93,36604,5.13,72596.0,-5.73,-7.77,-8.11,0,*59
1484561037.18,36605,5.13,72594.3,-5.73,-7.77,-8.17,0,*5E
1484561038.45,36606,5.13,72598.0,-5.69,-7.69,-8.07,0,*58
1484561039.73,36607,5.13,72594.8,-5.69,-7.65,-8.07,0,*55
1484561041.01,36608,5.13,72598.5,-5.69,-7.69,-8.07,0,*56
1484561042.29,36609,5.13,72598.0,-5.69,-7.77,-8.07,0,*58
1484561043.56,36610,5.13,72596.5,-5.69,-7.77,-8.07,0,*50
1484561044.81,36611,5.13,72596.0,-5.67,-7.77,-8.07,0,*5F
1484561046.09,36612,5.13,72598.3,-5.65,-7.77,-8.07,0,*5E
1484561047.28,36613,5.13,72596.8,-5.67,-7.83,-8.17,0,*57
1484561048.48,36614,5.13,72596.8,-5.67,-7.83,-8.17,0,*50
1484561049.72,36615,5.06,72592.0,-5.67,-7.65,-8.03,0,*5C
1484561050.97,36616,5.13,72598.8,-5.63,-7.61,-7.99,0,*53
1484561052.22,36617,5.13,72596.3,-5.63,-7.65,-7.99,0,*56
1484561053.5,36618,5.13,72596.5,-5.61,-7.65,-8.03,0,*57
1484561054.77,36619,5.13,72596.5,-5.61,-7.65,-8.03,0,*56
1484561056.05,36620,5.13,72596.8,-5.61,-7.73,-8.03,0,*5B
1484561057.32,36621,5.06,72592.3,-5.61,-7.73,-8.03,0,*5A
1484561058.61,36622,5.06,72592.3,-5.61,-7.73,-7.99,0,*55
1484561059.88,36623,5.06,72592.5,-5.61,-7.73,-8.03,0,*58
1484561061.15,36624,5.13,72594.5,-5.57,-7.69,-7.99,0,*5D
1484561062.4,36625,5.13,72594.5,-5.55,-7.65,-8.03,0,*5E
1484561063.68,36626,5.13,72594.0,-5.57,-7.73,-7.99,0,*54
1484561064.87,36627,5.06,72594.5,-5.55,-8.25,-8.71,0,*52
1484561066.14,36628,5.13,72594.0,-5.57,-8.51,-8.81,0,*53
1484561067.33,36629,5.13,72598.0,-5.55,-8.45,-8.63,0,*59
1484561068.52,36630,5.06,72594.8,-5.55,-8.25,-8.63,0,*57
1484561069.8,36631,5.13,72594.8,-5.53,-8.11,-8.51,0,*56
1484561071.05,36632,5.13,72594.8,-5.53,-8.07,-8.59,0,*5A
1484561072.27,36633,5.06,72592.0,-5.51,-8.03,-8.21,0,*52
1484561073.46,36634,5.06,72590.0,-5.51,-7.87,-8.17,0,*53
1484561074.68,36635,5.06,72592.0,-5.51,-8.03,-8.41,0,*52
1484561075.87,36636,5.13,72592.8,-5.51,-8.29,-8.55,0,*5C
1484561077.07,36637,5.13,72594.0,-5.51,-8.55,-8.85,0,*5B
1484561078.31,36638,5.13,72592.8,-5.53,-8.63,-8.85,0,*53
1484561079.56,36639,5.06,72594.5,-5.53,-9.19,-9.57,0,*50
1484561080.77,36640,5.13,72594.8,-5.51,-10.05,-10.35,0,*55
1484561082.0,36641,5.06,72594.8,-5.53,-9.71,-9.89,0,*52
1484561083.25,36642,5.13,72592.8,-5.53,-9.41,-9.71,0,*55
1484561084.48,36643,5.13,72594.3,-5.53,-8.89,-9.19,0,*5F
1484561085.71,36644,5.13,72598.0,-5.53,-9.79,-10.23,0,*67
1484561086.94,36645,5.13,72594.3,-5.53,-9.89,-10.23,0,*69
1484561088.19,36646,5.06,72594.8,-5.53,-9.53,-9.79,0,*5A
1484561089.41,36647,5.13,72598.3,-5.53,-9.67,-9.89,0,*53
1484561090.62,36648,5.06,72594.8,-5.55,-10.23,-10.49,0,*56
1484561091.82,36649,5.13,72594.5,-5.55,-9.97,-10.23,0,*6C
1484561093.04,36650,5.13,72598.0,-5.55,-9.53,-9.71,0,*53
1484561094.26,36651,5.13,72592.8,-5.55,-9.05,-9.49,0,*5A
1484561095.49,36652,5.06,72594.0,-5.57,-8.89,-9.19,0,*5B
1484561096.69,36653,5.13,72596.3,-5.55,-8.75,-9.01,0,*52
1484561097.89,36654,5.13,72594.5,-5.55,-8.63,-8.85,0,*5F
1484561099.12,36655,5.13,72594.5,-5.53,-8.59,-8.85,0,*51
1484561100.34,36656,5.13,72594.8,-5.53,-8.37,-8.75,0,*55
1484561101.56,36657,5.06,72592.0,-5.53,-8.33,-8.63,0,*57
1484561102.78,36658,5.06,72594.3,-5.53,-8.25,-8.59,0,*56
1484561104.03,36659,5.13,72596.3,-5.53,-8.21,-8.51,0,*5B
1484561105.25,36660,5.06,72592.3,-5.51,-8.07,-8.41,0,*56
1484561106.44,36661,5.13,72596.5,-5.51,-8.21,-8.55,0,*56
1484561107.67,36662,5.06,72594.0,-5.53,-8.63,-9.01,0,*51
1484561108.86,36663,5.13,72598.5,-5.51,-8.33,-8.67,0,*56
1484561110.06,36664,5.06,72592.8,-5.51,-8.17,-8.45,0,*57
1484561111.28,36665,5.06,72594.0,-5.49,-8.21,-8.59,0,*57
1484561112.49,36666,5.13,72596.5,-5.49,-8.21,-8.59,0,*54
1484561113.75,36667,5.13,72598.0,-5.49,-8.07,-8.45,0,*5C
1484561115.0,36668,5.13,72596.0,-5.49,-8.07,-8.45,0,*53
1484561116.24,36669,5.13,72596.3,-5.45,-8.03,-8.41,0,*5E
1484561117.52,36670,5.13,72596.5,-5.45,-8.11,-8.51,0,*54
1484561118.77,36671,5.13,72594.3,-5.45,-7.99,-8.37,0,*5A
1484561120.03,36672,5.13,72594.0,-5.45,-7.99,-8.37,0,*59
1484561121.24,36673,5.13,72592.8,-5.43,-7.91,-8.25,0,*55
1484561122.46,36674,5.13,72598.8,-5.43,-7.95,-8.25,0,*56
1484561123.69,36675,5.13,72594.8,-5.43,-7.95,-8.25,0,*57
1484561124.91,36676,5.13,72598.0,-5.43,-7.91,-8.21,0,*54
1484561126.12,36677,5.13,72596.8,-5.43,-7.95,-8.33,0,*52
1484561127.38,36678,5.13,72594.8,-5.41,-8.07,-8.37,0,*5F
1484561128.63,36679,5.06,72594.8,-5.41,-7.95,-8.33,0,*5E
1484561129.87,36680,5.06,72590.3,-5.41,-7.91,-8.25,0,*5B
1484561131.08,36681,5.06,72594.3,-5.39,-7.91,-8.29,0,*59
1484561132.33,36682,5.13,72592.5,-5.41,-7.95,-8.25,0,*5D
1484561133.58,36683,5.06,72594.8,-5.41,-7.95,-8.25,0,*5C
1484561134.77,36684,5.13,72592.8,-5.39,-7.87,-8.17,0,*56
1484561136.02,36685,5.13,72594.8,-5.39,-7.73,-8.03,0,*59
1484561137.29,36686,5.13,72596.0,-5.33,-7.69,-7.91,0,*5F
1484561138.56,36687,5.06,72594.5,-5.33,-7.73,-8.03,0,*51
1484561139.82,36688,5.13,72594.8,-5.33,-7.69,-8.03,0,*55
1484561141.09,36689,5.13,72594.0,-5.33,-7.73,-8.03,0,*5F
1484561142.34,36690,5.13,72592.5,-5.33,-7.99,-8.37,0,*54
1484561143.58,36691,5.13,72596.0,-5.33,-7.91,-8.29,0,*52
1484561144.82,36692,5.13,72592.3,-5.33,-7.83,-8.03,0,*5A
1484561146.06,36693,5.13,72594.3,-5.33,-7.83,-8.11,0,*58
1484561147.28,36694,5.06,72592.8,-5.33,-7.83,-8.17,0,*59
1484561148.51,36695,5.06,72590.5,-5.31,-8.21,-8.45,0,*5A
1484561149.76,36696,5.13,72592.0,-5.31,-7.99,-8.37,0,*50
1484561150.99,36697,5.13,72598.5,-5.31,-7.83,-8.21,0,*5D
1484561152.24,36698,5.13,72596.3,-5.31,-7.83,-8.11,0,*51
1484561153.47,36699,5.13,72592.5,-5.29,-7.83,-8.11,0,*59
1484561154.73,36700,5.13,72594.3,-5.31,-7.77,-8.21,0,*59
1484561155.98,36701,5.13,72592.5,-5.29,-7.77,-8.11,0,*52
1484561157.23,36702,5.13,72592.5,-5.29,-8.11,-8.51,0,*5A
1484561158.45,36703,5.06,72592.3,-5.29,-7.95,-8.33,0,*5C
1484561159.74,36704,5.06,72588.0,-5.27,-7.73,-8.07,0,*5A
1484561161.02,36705,5.13,72594.5,-5.27,-7.73,-7.95,0,*5F
1484561162.29,36706,5.13,72592.0,-5.27,-7.61,-7.91,0,*5B
1484561163.56,36707,5.13,72594.5,-5.27,-7.65,-8.03,0,*5A
1484561164.79,36708,5.13,72594.8,-5.25,-7.77,-8.17,0,*51
1484561165.98,36709,5.06,72594.3,-5.25,-7.83,-8.17,0,*5B
1484561167.2,36710,5.06,72592.0,-5.27,-8.41,-8.75,0,*54
1484561168.41,36711,5.06,72590.3,-5.25,-8.97,-9.27,0,*5A
1484561169.66,36712,5.13,72592.0,-5.27,-9.37,-9.71,0,*53
1484561170.89,36713,5.13,72594.5,-5.27,-9.67,-10.09,0,*60
1484561172.12,36714,5.13,72594.3,-5.27,-9.79,-10.09,0,*68
1484561173.32,36715,5.13,72594.3,-5.29,-9.89,-10.23,0,*60
1484561174.54,36716,5.13,72592.5,-5.29,-10.01,-10.35,0,*5C
1484561175.77,36717,5.13,72596.8,-5.31,-10.01,-10.23,0,*53
1484561177.0,36718,5.06,72590.5,-5.31,-9.89,-10.23,0,*64
1484561178.23,36719,5.13,72592.8,-5.31,-9.75,-10.09,0,*6E
1484561179.49,36720,5.06,72588.3,-5.31,-10.09,-10.41,0,*5B
1484561180.73,36721,5.13,72594.8,-5.31,-10.27,-10.57,0,*51
1484561181.95,36722,5.13,72594.3,-5.33,-9.67,-9.93,0,*5C
1484561183.23,36723,5.13,72592.8,-5.33,-9.11,-9.37,0,*52
1484561184.46,36724,5.13,72592.3,-5.33,-8.85,-9.19,0,*55
1484561185.73,36725,5.13,72592.8,-5.33,-9.11,-9.45,0,*51
1484561186.99,36726,5.13,72592.5,-5.31,-9.19,-9.53,0,*5F
1484561188.24,36727,5.13,72594.5,-5.31,-9.27,-9.57,0,*57
1484561189.49,36728,5.13,72592.8,-5.33,-8.97,-9.45,0,*53
1484561190.74,36729,5.13,72594.5,-5.33,-8.75,-9.11,0,*5F
1484561191.99,36730,5.13,72594.8,-5.31,-8.51,-8.93,0,*58
1484561193.22,36731,5.06,72588.8,-5.33,-8.55,-8.85,0,*58
1484561194.44,36732,5.13,72594.0,-5.31,-8.45,-8.75,0,*57
1484561195.69,36733,5.06,72592.5,-5.31,-8.25,-8.51,0,*56
1484561196.92,36734,5.13,72592.5,-5.29,-8.21,-8.51,0,*5C
1484561198.17,36735,5.13,72594.3,-5.29,-8.11,-8.51,0,*5E
1484561199.38,36736,5.13,72592.0,-5.29,-8.21,-8.45,0,*5B
1484561200.6,36737,5.13,72592.0,-5.27,-8.41,-8.75,0,*51
1484561201.82,36738,5.06,72588.8,-5.27,-8.21,-8.45,0,*5B
1484561203.07,36739,5.13,72592.8,-5.27,-8.55,-9.11,0,*59
1484561204.3,36740,5.13,72594.3,-5.27,-8.45,-8.85,0,*5A
1484561205.53,36741,5.13,72592.8,-5.27,-8.55,-8.85,0,*5A
1484561206.76,36742,5.13,72592.8,-5.27,-9.67,-9.93,0,*5F
1484561207.99,36743,5.13,72592.0,-5.27,-10.23,-10.49,0,*59
1484561209.27,36744,5.13,72592.3,-5.31,-11.23,-11.63,0,*51
1484561210.56,36745,5.13,72592.0,-5.31,-11.67,-11.89,0,*54
1484561211.82,36746,5.13,72594.8,-5.31,-11.11,-11.51,0,*53
1484561213.09,36747,5.13,72596.0,-5.31,-10.71,-10.97,0,*5E
1484561214.32,36748,5.13,72592.0,-5.35,-10.75,-11.01,0,*5F
1484561215.53,36749,5.13,72592.0,-5.35,-10.19,-10.45,0,*55
1484561216.76,36750,5.13,72594.3,-5.33,-10.49,-10.85,0,*52
1484561217.97,36751,5.13,72592.8,-5.35,-10.15,-10.31,0,*53
1484561219.17,36752,5.13,72594.3,-5.35,-9.67,-10.01,0,*6E
1484561220.39,36753,5.06,72590.0,-5.35,-9.49,-9.79,0,*54
1484561221.62,36754,5.13,72594.0,-5.35,-9.23,-9.49,0,*5C
1484561222.87,36755,5.13,72590.3,-5.35,-9.11,-9.37,0,*55
1484561224.07,36756,5.13,72590.5,-5.35,-8.93,-9.19,0,*51
1484561225.31,36757,5.13,72592.5,-5.33,-8.67,-9.11,0,*55
1484561226.54,36758,5.13,72592.8,-5.33,-8.63,-8.93,0,*55
1484561227.76,36759,5.06,72590.0,-5.33,-8.63,-8.85,0,*53
1484561228.98,36760,5.13,72594.3,-5.33,-8.55,-8.97,0,*5F
1484561230.2,36761,5.13,72592.3,-5.33,-8.67,-8.97,0,*5F
1484561231.47,36762,5.13,72594.3,-5.31,-8.51,-8.81,0,*5C
1484561232.72,36763,5.13,72592.5,-5.31,-8.45,-8.81,0,*58
1484561233.95,36764,5.13,72592.0,-5.31,-8.45,-8.63,0,*53
1484561235.17,36765,5.13,72594.8,-5.31,-8.45,-8.63,0,*52
1484561236.36,36766,5.13,72590.8,-5.29,-8.33,-8.63,0,*59
1484561237.59,36767,5.13,72590.8,-5.31,-8.25,-8.59,0,*5F
1484561238.79,36768,5.13,72592.5,-5.29,-8.25,-8.59,0,*59
1484561239.98,36769,5.13,72594.0,-5.29,-8.25,-8.59,0,*58
1484561241.21,36770,5.13,72588.5,-5.29,-8.25,-8.51,0,*58
1484561242.44,36771,5.13,72592.3,-5.29,-8.25,-8.51,0,*59
1484561243.67,36772,5.13,72592.8,-5.29,-8.21,-8.51,0,*5E
1484561244.88,36773,5.13,72592.8,-5.27,-8.21,-8.55,0,*55
1484561246.1,36774,5.13,72592.3,-5.27,-8.29,-8.55,0,*5A
1484561247.3,36775,5.06,72588.0,-5.25,-8.29,-8.45,0,*58
1484561248.5,36776,5.13,72592.0,-5.25,-8.17,-8.45,0,*56
1484561249.7,36777,5.13,72594.0,-5.25,-8.17,-8.45,0,*57
1484561250.89,36778,5.13,72596.0,-5.25,-8.21,-8.55,0,*5C
1484561252.09,36779,5.13,72594.5,-5.25,-8.29,-8.55,0,*55
1484561253.28,36780,5.13,72594.8,-5.21,-8.25,-8.55,0,*5B
1484561254.5,36781,5.13,72592.8,-5.21,-8.17,-8.51,0,*5F
1484561255.76,36782,5.13,72596.3,-5.21,-8.11,-8.51,0,*5A
1484561256.98,36783,5.13,72594.8,-5.21,-8.03,-8.37,0,*58
1484561258.24,36784,5.06,72590.5,-5.19,-8.11,-8.37,0,*57
1484561259.46,36785,5.13,72596.8,-5.19,-8.17,-8.41,0,*51
1484561260.7,36786,5.13,72592.0,-5.19,-8.03,-8.41,0,*57
1484561261.96,36787,5.13,72592.3,-5.19,-8.11,-8.37,0,*54
1484561263.2,36788,5.13,72594.3,-5.19,-8.03,-8.37,0,*58
1484561264.43,36789,5.13,72590.0,-5.19,-8.17,-8.37,0,*5C
1484561265.66,36790,5.13,72594.3,-5.17,-8.07,-8.37,0,*5B
1484561266.89,36791,5.13,72592.3,-5.17,-7.99,-8.37,0,*52
1484561268.1,36792,5.13,72594.5,-5.13,-7.91,-8.33,0,*59
1484561269.32,36793,5.13,72594.0,-5.17,-7.99,-8.33,0,*54
1484561270.51,36794,5.13,72592.3,-5.17,-7.87,-8.25,0,*5B
1484561271.73,36795,5.06,72588.5,-5.13,-7.91,-8.21,0,*5D
1484561272.95,36796,5.13,72596.5,-5.13,-7.91,-8.21,0,*5E
1484561274.17,36797,5.13,72592.8,-5.13,-7.91,-8.29,0,*57
1484561275.39,36798,5.13,72594.8,-5.11,-7.83,-8.21,0,*51
1484561276.61,36799,5.13,72594.5,-5.11,-7.83,-8.29,0,*58
1484561277.85,36800,5.13,72592.3,-5.11,-7.95,-8.29,0,*50
1484561279.08,36801,5.13,72590.3,-5.09,-8.11,-8.37,0,*54
1484561280.32,36802,5.06,72590.5,-5.11,-8.07,-8.33,0,*5D
1484561281.54,36803,5.13,72590.5,-5.09,-7.99,-8.29,0,*56
1484561282.76,36804,5.13,72594.5,-5.09,-7.99,-8.29,0,*51
1484561283.97,36805,5.13,72594.3,-5.09,-7.99,-8.29,0,*50
1484561285.19,36806,5.13,72592.3,-5.09,-7.91,-8.29,0,*5B
1484561286.41,36807,5.13,72594.5,-5.07,-7.87,-8.25,0,*5F
1484561287.63,36808,5.13,72592.0,-5.07,-7.87,-8.21,0,*54
1484561288.85,36809,5.13,72594.8,-5.07,-7.83,-8.21,0,*51
1484561290.09,36810,5.13,72594.8,-5.07,-7.83,-8.11,0,*5A
1484561291.29,36811,5.13,72592.0,-5.05,-7.83,-8.21,0,*5A
1484561292.5,36812,5.13,72592.8,-5.05,-7.83,-8.21,0,*59
1484561293.73,36813,5.13,72594.3,-5.05,-7.73,-8.21,0,*57
1484561294.97,36814,5.13,72594.8,-5.05,-7.69,-8.11,0,*58
1484561296.25,36815,5.13,72594.0,-5.03,-7.65,-8.07,0,*54
1484561297.52,36816,5.13,72592.8,-5.03,-7.65,-7.95,0,*53
1484561298.79,36817,5.13,72594.5,-5.03,-7.65,-7.95,0,*52
1484561300.03,36818,5.06,72592.3,-5.01,-7.57,-7.95,0,*5E
1484561301.28,36819,5.13,72592.5,-5.01,-7.57,-8.03,0,*5F
1484561302.52,36820,5.06,72592.3,-5.01,-7.57,-8.03,0,*55
1484561303.77,36821,5.13,72596.0,-5.01,-7.57,-7.95,0,*54
1484561304.98,36822,5.13,72592.3,-5.01,-7.53,-7.91,0,*57
1484561306.2,36823,5.13,72592.3,-5.01,-7.53,-7.91,0,*56
1484561307.45,36824,5.06,72590.8,-4.97,-7.49,-7.91,0,*54
1484561308.7,36825,5.13,72592.0,-4.97,-7.43,-7.87,0,*58
1484561309.95,36826,5.06,72590.5,-4.95,-7.43,-7.73,0,*52
1484561311.2,36827,5.13,72592.3,-4.97,-7.43,-7.87,0,*5A
1484561312.4,36828,5.13,72592.3,-4.95,-7.49,-7.87,0,*5D
1484561313.62,36829,5.13,72592.8,-4.95,-7.43,-7.87,0,*56
1484561314.87,36830,5.13,72594.3,-4.95,-7.43,-7.77,0,*51
1484561316.12,36831,5.13,72594.3,-4.93,-7.43,-7.83,0,*5D